SCP
0 0 0 0 0 0 0 0 0 0 0 0 0 0 0 0 0 0 0 0 0 0 0 0 0 0 0 0 0 0 0 0 0 0 0 0 0 0
0 0 0 0 0 0 0 0 0 0 0 0 0 0 0 0 0 0 0 0 0 0 0 0 0 0 0 0 0 0 0 0 0 0 0 0 0 0
0 0 0 0 0 0 0 0 0 0 0 0 0 0 0 0 0 0 0 0 0 0 0 0 0 0 0 0 0 0 0 0 0 0 0 0 0 0
0 0 0 0 0 0 0 0 0 0 0 0 0 0 0 0 0 0 0 0 0 0 0 0 0 0 0 0 0 0 0 0 0 0 0 0 0 0
0 0 0 0 0 0 0 0 0 0 0 0 0 0 0 0 0 0 0 0 0 0 0 0 0 0 0 0 0 0 0 0 0 0 0 0 0 0
0 0 0 0 0 0 0 0 0 0 0 0 0 0 0 0 0 0 0 0 0 0 0 0 0 0 0 0 0 0 0 0 0 0 0 0 0 0
0 0 0 0 0 0 0 0 0 0 0 0 0 0 0 0 0 0 0 0 0 0 0 0 0 0 0 0 0 0 0 0 0 0 0 0 0 0
0 0 0 0 0 0 0 0 0 0 0 0 0 0 0 0 0 0 0 0 0 0 0 0 0 0 0 0 0 0 0 0 0 0 0 0 0 0
0 0 0 0 0 0 0 0 0 0 0 0 0 0 0 0 0 0 0 0 0 0 0 0 0 0 0 0 0 0 0 0 0 0 0 0 0 0
0 0 0 0 0 0 0 0 0 0 0 0 0 0 0 0 0 0 0 0 0 0 0 0 0 0 0 0 0 0 0 0 0 0 0 0 0 0
0 0 0 0 0 0 0 0 0 0 0 0 0 0 0 0 0 0 0 0 0 0 0 0 0 0 0 0 0 0 0 0 0 0 0 0 0 0
0 0 0 0 0 0 0 0 0 0 0 0 0 0 0 0 0 0 0 0 0 0 0 0 0 0 0 0 0 0 0 0 0 0 0 0 0 0
0 0 0 0 0 0 0 0 0 0 0 0 0 0 0 0 0 0 0 0 0 0 0 0 0 0 0 0 0 0 0 0 0 0 0 0 0 0
0 0 0 0 0 0 0 0 0 0 0 0 0 0 0 0 0 0 0 0 0 0 0 0 0 0 0 0 0 0 0 0 0 0 0 0 0 0
0 0 0 0 0 0 0 0 0 0 0 0 0 0 0 0 0 0 0 0 0 0 0 0 0 0 0 0 0 0 0 0 0 0 0 0 0 0
0 0 0 0 0 0 0 0 0 0 0 0 0 0 0 0 0 0 0 0 0 0 0 0 0 0 0 0 0 0 0 0 0 0 0 0 0 0
0 0 0 0 0 0 0 0 0 0 0 0 0 0 0 0 0 0 0 0 0 0 0 0 0 0 0 0 0 0 0 0 0 0 0 0 0 0
0 0 0 0 0 0 0 0 0 0 0 0 0 0 0 0 0 0 0 0 0 0 0 0 0 0 0 0 0 0 0 0 0 0 0 0 0 0
0 0 0 0 0 0 0 0 0 0 0 0 0 0 0 0 0 0 0 0 0 0 0 0 0 0 0 0 0 0 0 0 0 0 0 0 0 0
0 0 0 0 0 0 0 0 0 0 0 0 0 0 0 0 0 0 0 0 0 0 0 0 0 0 0 0 0 0 0 0 0 0 0 0 0 0
0 0 0 0 0 0 0 0 0 0 0 0 0 0 0 0 0 0 0 0 0 0 0 0 0 0 0 0 0 0 0 0 0 0 0 0 0 0
0 0 0 0 0 0 0 0 0 0 0 0 0 0 0 0 0 0 0 0 0 0 0 0 0 0 0 0 0 0 0 0 0 0 0 0 0 0
0 0 0 0 0 0 0 0 0 0 0 0 0 0 0 0 0 0 0 0 0 0 0 0 0 0 0 0 0 0 0 0 0 0 0 0 0 0
Wind_Speed_500mb
93 93 95 98 100 99 100 95 88 66 69 73 78 75 67 59 58 51 48 50 49 59 62 62 57 44 47 44 42 49 66 67 64 62 65 65 61 53
86 84 86 93 95 93 94 93 93 94 89 78 81 77 74 64 61 63 65 58 56 51 44 52 49 45 42 40 42 55 73 65 56 53 64 67 52 48
84 87 86 83 81 88 90 89 94 95 97 97 89 84 74 79 71 72 59 57 51 44 52 56 49 46 42 43 46 63 72 71 57 55 60 51 46 40
85 82 87 79 81 84 86 90 91 92 97 95 93 86 85 79 76 65 68 60 50 53 51 56 48 46 38 44 54 67 70 63 59 60 59 55 48 40
82 83 81 78 81 80 83 86 91 91 92 98 93 91 82 78 53 49 54 52 59 55 50 47 44 43 40 44 57 64 66 60 57 61 60 55 54 51
73 72 77 73 79 83 81 84 83 90 91 94 91 84 80 55 68 54 52 52 53 49 42 39 36 39 40 44 56 61 56 56 57 59 57 54 52 52
70 69 72 73 72 80 75 90 69 87 84 90 85 80 67 60 65 51 51 55 44 40 40 39 40 40 38 42 52 55 58 56 54 52 51 47 44 38
73 72 70 67 64 69 72 67 73 70 73 73 66 74 56 54 59 58 49 46 43 39 38 37 37 36 36 40 49 53 51 52 51 50 47 43 42 42
75 75 76 75 73 71 72 74 80 67 72 67 57 54 55 54 52 56 43 42 42 34 26 32 37 35 38 40 50 51 50 50 50 49 49 47 47 45
69 72 77 78 75 69 67 69 69 67 61 59 57 54 56 50 45 37 33 39 39 35 32 34 35 33 34 39 46 54 56 54 54 53 54 52 44 39
63 62 64 65 67 67 69 69 66 64 64 60 54 51 44 39 35 37 43 43 42 41 39 38 36 34 34 35 39 42 46 48 49 49 47 41 39 35
59 62 60 58 56 54 54 53 57 58 57 57 53 49 43 37 38 39 39 44 46 36 40 37 33 35 27 35 36 38 40 41 43 40 37 37 35 34
52 52 52 54 58 59 59 57 57 53 54 47 44 39 36 37 37 40 42 39 37 33 31 45 40 39 28 23 37 34 32 32 33 34 34 32 31 32
54 50 51 52 52 52 51 48 48 45 43 42 42 39 38 39 39 37 38 36 33 31 32 40 34 35 35 26 29 36 34 35 34 33 31 31 33 35
48 48 47 47 49 48 45 45 45 42 42 45 44 42 41 38 37 37 36 34 35 35 32 36 33 29 30 29 30 36 40 38 35 32 33 36 37 39
51 49 47 47 46 43 44 41 37 39 44 46 44 42 42 39 36 34 35 38 39 36 35 36 36 35 33 33 29 35 38 26 33 37 37 37 39 37
40 42 42 41 40 38 34 32 33 34 35 35 37 39 37 35 33 35 36 35 34 34 34 35 34 33 32 35 36 37 38 38 39 41 38 37 37 37
32 35 35 34 34 31 33 34 33 33 32 32 34 32 30 28 32 31 28 28 26 27 28 28 28 30 30 30 30 30 37 41 41 38 37 37 35 34
28 23 21 18 17 19 21 22 23 24 26 28 27 26 25 26 25 25 25 25 25 24 24 25 26 28 29 29 25 31 35 36 38 40 38 37 37 33
16 17 18 13 10 9 8 7 10 15 17 16 15 14 13 14 16 18 18 19 20 23 24 26 28 28 29 29 29 28 33 37 36 36 39 40 39 38
26 22 20 18 12 9 8 9 9 10 10 10 9 10 12 13 14 14 15 16 19 22 24 26 27 31 35 36 40 38 36 37 39 40 41 41 40 40
22 18 16 12 9 7 6 4 4 3 4 7 9 12 14 16 19 21 23 25 26 27 29 31 34 38 41 43 42 39 40 41 44 44 42 40 38 31
20 16 11 7 5 4 6 9 10 11 15 18 20 22 25 27 29 31 32 33 33 33 34 36 37 40 44 44 45 46 47 46 45 44 44 43 43 47
Wind_Direction_500mb
266 266 264 265 260 264 264 263 258 259 265 274 278 282 281 282 283 279 272 269 268 268 266 267 269 262 262 253 245 213 225 232 229 235 235 242 249 250
265 266 269 264 263 263 263 264 264 262 262 266 271 276 282 278 275 277 273 275 269 276 264 265 262 261 262 256 250 209 229 232 232 244 247 252 245 253
267 266 267 267 269 270 268 268 266 264 258 270 273 275 264 279 269 269 267 269 276 273 261 261 261 255 260 259 237 219 228 232 235 239 241 237 237 243
268 268 267 269 268 267 268 268 269 270 265 265 272 267 272 259 266 278 267 273 274 264 262 259 258 260 252 253 232 222 229 235 231 230 234 233 237 242
270 268 265 265 265 268 268 268 267 268 267 268 266 266 263 265 271 263 258 271 263 263 259 257 255 248 258 251 232 226 228 225 227 227 232 230 243 250
272 270 266 267 267 267 269 267 267 267 267 265 261 255 259 267 275 254 263 266 260 257 253 251 253 265 262 250 230 223 226 232 234 236 239 243 248 257
270 269 269 269 267 271 265 270 269 269 268 263 262 260 258 260 262 267 264 255 252 250 244 249 255 259 249 241 226 226 229 233 236 237 241 243 253 260
268 271 267 267 269 269 264 267 272 267 268 267 264 262 255 255 265 263 249 245 239 237 238 254 254 252 243 237 233 232 231 231 235 239 242 247 248 259
263 261 264 265 266 265 266 267 264 262 263 261 257 259 255 271 262 249 235 237 236 236 244 247 256 244 240 230 226 226 227 231 234 240 243 248 253 257
260 259 262 261 260 265 261 267 267 263 259 259 263 259 257 254 240 244 244 231 228 233 233 233 231 231 233 228 223 225 230 235 236 240 242 245 248 245
258 260 261 262 259 257 260 261 257 257 262 261 257 256 241 240 243 239 226 223 223 226 226 224 223 224 222 219 217 218 221 226 230 235 234 235 231 234
261 259 260 260 261 256 249 248 254 258 256 254 250 246 252 251 247 235 235 226 216 217 220 215 214 208 203 213 215 216 222 226 226 227 219 219 226 239
264 263 261 258 255 255 256 255 258 255 240 240 246 246 243 237 226 220 213 208 215 220 222 205 201 205 204 201 206 209 207 205 201 200 208 223 238 251
262 260 258 256 252 249 247 242 236 232 234 242 235 228 217 213 208 202 201 202 208 211 199 197 203 206 206 194 186 194 194 195 200 209 222 236 248 258
266 260 254 251 247 242 234 230 228 229 232 226 219 215 208 201 199 199 200 202 210 205 199 203 205 206 209 210 199 189 195 202 211 225 235 245 248 261
265 253 245 244 238 228 222 224 223 222 222 218 212 203 197 194 198 204 211 213 216 214 211 211 211 211 215 213 206 201 205 212 228 235 236 246 262 267
252 234 231 226 216 208 202 201 204 208 206 206 204 200 199 198 204 215 221 223 220 214 211 211 211 216 214 212 218 222 228 230 233 242 250 255 261 268
225 219 215 211 208 202 196 193 195 199 199 199 197 200 204 213 226 224 213 206 204 202 203 203 206 210 217 221 222 221 225 230 237 243 250 257 263 268
213 207 201 199 190 188 184 183 183 185 191 195 199 216 226 223 213 209 199 201 199 202 203 204 208 211 218 224 234 232 235 237 241 247 252 262 267 274
147 150 151 141 137 147 158 171 186 190 190 192 189 187 197 209 212 211 204 203 205 215 220 226 231 234 237 245 245 249 240 243 245 251 258 266 272 276
98 102 100 107 114 117 118 121 127 138 149 158 168 198 207 213 226 229 232 232 233 236 244 246 249 248 249 251 252 254 252 250 250 257 266 270 275 280
85 95 101 102 109 116 128 151 163 181 187 206 214 229 240 245 246 247 247 248 247 249 253 255 257 260 260 259 261 259 258 256 262 267 265 267 271 270
29 26 24 13 337 286 270 267 268 252 249 250 247 247 249 251 250 249 250 253 257 258 260 263 264 263 262 262 262 261 262 266 266 263 263 266 267 272
Wind_Speed_850mb
93 93 95 98 100 99 100 95 88 66 69 73 78 75 67 59 58 51 48 50 49 59 62 62 57 44 47 44 42 49 66 67 64 62 65 65 61 53
86 84 86 93 95 93 94 93 93 94 89 78 81 77 74 64 61 63 65 58 56 51 44 52 49 45 42 40 42 55 73 65 56 53 64 67 52 48
84 87 86 83 81 88 90 89 94 95 97 97 89 84 74 79 71 72 59 57 51 44 52 56 49 46 42 43 46 63 72 71 57 55 60 51 46 40
85 82 87 79 81 84 86 90 91 92 97 95 93 86 85 79 76 65 68 60 50 53 51 56 48 46 38 44 54 67 70 63 59 60 59 55 48 40
82 83 81 78 81 80 83 86 91 91 92 98 93 91 82 78 53 49 54 52 59 55 50 47 44 43 40 44 57 64 66 60 57 61 60 55 54 51
73 72 77 73 79 83 81 84 83 90 91 94 91 84 80 55 68 54 52 52 53 49 42 39 36 39 40 44 56 61 56 56 57 59 57 54 52 52
70 69 72 73 72 80 75 90 69 87 84 90 85 80 67 60 65 51 51 55 44 40 40 39 40 40 38 42 52 55 58 56 54 52 51 47 44 38
73 72 70 67 64 69 72 67 73 70 73 73 66 74 56 54 59 58 49 46 43 39 38 37 37 36 36 40 49 53 51 52 51 50 47 43 42 42
75 75 76 75 73 71 72 74 80 67 72 67 57 54 55 54 52 56 43 42 42 34 26 32 37 35 38 40 50 51 50 50 50 49 49 47 47 45
69 72 77 78 75 69 67 69 69 67 61 59 57 54 56 50 45 37 33 39 39 35 32 34 35 33 34 39 46 54 56 54 54 53 54 52 44 39
63 62 64 65 67 67 69 69 66 64 64 60 54 51 44 39 35 37 43 43 42 41 39 38 36 34 34 35 39 42 46 48 49 49 47 41 39 35
59 62 60 58 56 54 54 53 57 58 57 57 53 49 43 37 38 39 39 44 46 36 40 37 33 35 27 35 36 38 40 41 43 40 37 37 35 34
52 52 52 54 58 59 59 57 57 53 54 47 44 39 36 37 37 40 42 39 37 33 31 45 40 39 28 23 37 34 32 32 33 34 34 32 31 32
54 50 51 52 52 52 51 48 48 45 43 42 42 39 38 39 39 37 38 36 33 31 32 40 34 35 35 26 29 36 34 35 34 33 31 31 33 35
48 48 47 47 49 48 45 45 45 42 42 45 44 42 41 38 37 37 36 34 35 35 32 36 33 29 30 29 30 36 40 38 35 32 33 36 37 39
51 49 47 47 46 43 44 41 37 39 44 46 44 42 42 39 36 34 35 38 39 36 35 36 36 35 33 33 29 35 38 26 33 37 37 37 39 37
40 42 42 41 40 38 34 32 33 34 35 35 37 39 37 35 33 35 36 35 34 34 34 35 34 33 32 35 36 37 38 38 39 41 38 37 37 37
32 35 35 34 34 31 33 34 33 33 32 32 34 32 30 28 32 31 28 28 26 27 28 28 28 30 30 30 30 30 37 41 41 38 37 37 35 34
28 23 21 18 17 19 21 22 23 24 26 28 27 26 25 26 25 25 25 25 25 24 24 25 26 28 29 29 25 31 35 36 38 40 38 37 37 33
16 17 18 13 10 9 8 7 10 15 17 16 15 14 13 14 16 18 18 19 20 23 24 26 28 28 29 29 29 28 33 37 36 36 39 40 39 38
26 22 20 18 12 9 8 9 9 10 10 10 9 10 12 13 14 14 15 16 19 22 24 26 27 31 35 36 40 38 36 37 39 40 41 41 40 40
22 18 16 12 9 7 6 4 4 3 4 7 9 12 14 16 19 21 23 25 26 27 29 31 34 38 41 43 42 39 40 41 44 44 42 40 38 31
20 16 11 7 5 4 6 9 10 11 15 18 20 22 25 27 29 31 32 33 33 33 34 36 37 40 44 44 45 46 47 46 45 44 44 43 43 47
Wind_Direction_850mb
266 266 264 265 260 264 264 263 258 259 265 274 278 282 281 282 283 279 272 269 268 268 266 267 269 262 262 253 245 213 225 232 229 235 235 242 249 250
265 266 269 264 263 263 263 264 264 262 262 266 271 276 282 278 275 277 273 275 269 276 264 265 262 261 262 256 250 209 229 232 232 244 247 252 245 253
267 266 267 267 269 270 268 268 266 264 258 270 273 275 264 279 269 269 267 269 276 273 261 261 261 255 260 259 237 219 228 232 235 239 241 237 237 243
268 268 267 269 268 267 268 268 269 270 265 265 272 267 272 259 266 278 267 273 274 264 262 259 258 260 252 253 232 222 229 235 231 230 234 233 237 242
270 268 265 265 265 268 268 268 267 268 267 268 266 266 263 265 271 263 258 271 263 263 259 257 255 248 258 251 232 226 228 225 227 227 232 230 243 250
272 270 266 267 267 267 269 267 267 267 267 265 261 255 259 267 275 254 263 266 260 257 253 251 253 265 262 250 230 223 226 232 234 236 239 243 248 257
270 269 269 269 267 271 265 270 269 269 268 263 262 260 258 260 262 267 264 255 252 250 244 249 255 259 249 241 226 226 229 233 236 237 241 243 253 260
268 271 267 267 269 269 264 267 272 267 268 267 264 262 255 255 265 263 249 245 239 237 238 254 254 252 243 237 233 232 231 231 235 239 242 247 248 259
263 261 264 265 266 265 266 267 264 262 263 261 257 259 255 271 262 249 235 237 236 236 244 247 256 244 240 230 226 226 227 231 234 240 243 248 253 257
260 259 262 261 260 265 261 267 267 263 259 259 263 259 257 254 240 244 244 231 228 233 233 233 231 231 233 228 223 225 230 235 236 240 242 245 248 245
258 260 261 262 259 257 260 261 257 257 262 261 257 256 241 240 243 239 226 223 223 226 226 224 223 224 222 219 217 218 221 226 230 235 234 235 231 234
261 259 260 260 261 256 249 248 254 258 256 254 250 246 252 251 247 235 235 226 216 217 220 215 214 208 203 213 215 216 222 226 226 227 219 219 226 239
264 263 261 258 255 255 256 255 258 255 240 240 246 246 243 237 226 220 213 208 215 220 222 205 201 205 204 201 206 209 207 205 201 200 208 223 238 251
262 260 258 256 252 249 247 242 236 232 234 242 235 228 217 213 208 202 201 202 208 211 199 197 203 206 206 194 186 194 194 195 200 209 222 236 248 258
266 260 254 251 247 242 234 230 228 229 232 226 219 215 208 201 199 199 200 202 210 205 199 203 205 206 209 210 199 189 195 202 211 225 235 245 248 261
265 253 245 244 238 228 222 224 223 222 222 218 212 203 197 194 198 204 211 213 216 214 211 211 211 211 215 213 206 201 205 212 228 235 236 246 262 267
252 234 231 226 216 208 202 201 204 208 206 206 204 200 199 198 204 215 221 223 220 214 211 211 211 216 214 212 218 222 228 230 233 242 250 255 261 268
225 219 215 211 208 202 196 193 195 199 199 199 197 200 204 213 226 224 213 206 204 202 203 203 206 210 217 221 222 221 225 230 237 243 250 257 263 268
213 207 201 199 190 188 184 183 183 185 191 195 199 216 226 223 213 209 199 201 199 202 203 204 208 211 218 224 234 232 235 237 241 247 252 262 267 274
147 150 151 141 137 147 158 171 186 190 190 192 189 187 197 209 212 211 204 203 205 215 220 226 231 234 237 245 245 249 240 243 245 251 258 266 272 276
98 102 100 107 114 117 118 121 127 138 149 158 168 198 207 213 226 229 232 232 233 236 244 246 249 248 249 251 252 254 252 250 250 257 266 270 275 280
85 95 101 102 109 116 128 151 163 181 187 206 214 229 240 245 246 247 247 248 247 249 253 255 257 260 260 259 261 259 258 256 262 267 265 267 271 270
29 26 24 13 337 286 270 267 268 252 249 250 247 247 249 251 250 249 250 253 257 258 260 263 264 263 262 262 262 261 262 266 266 263 263 266 267 272